Location: Cheyres
(46.8153°N, 6.7877°E)
Time: 04:19:10
(UTC+00:00)

IGS 5A - Pass Details

Date: 11 May 2021
Orbit: 583 x 588 km, 97.6° (Epoch: 06 May)

Event Time Altitude Azimuth Distance (km) Brightness Sun altitude
Exits shadow 20:24:31 11° 178° (S) 1,818 5.5 -12.9°
Maximum altitude 20:28:24 61° 259° (W) 665 3.9 -13.4°
Drops below altitude 10° 20:32:31 10° 341° (NNW) 1,917 7.2 -13.9°
Sets 20:34:43 0° 345° (NNW) 2,822 8.1 -14.1°
